STARLINK-30146, 57442

Orbit data source: Space-Track

STARLINK-30146, 57442 is a payload satellite owned by SpaceX/Seattle (US) in LEO that was launched on Mon, 24 Jul 2023 UTC via an FALCON 9 launch vehicle from the Air Force Eastern Test Range (AFETR). Payload-class satellites include a variety of spacecraft equipped with specific instruments for various scientific and technological missions. These include communications satellites like Starlink; space stations such as the ISS; scientific satellites like the Hubble; Earth observation satellites from companies like Planet Labs, Umbra, and HawkEye 360; GPS; miniature CubeSats for education and research; and military/defense satellites.

Loading next visibility...
Identifier
57442, 2023-105N
Orbit
LEO
Country
Flag of USUS
Related business
Manufacturer
SpaceX/Seattle
Mission
Operational Commercial Communications
Bus & Motor
STARLINK V2M, Unknown motor
Mass
730 kg wet, ~700 kg dry
Launch date (UTC)
2023-07-24 (3 years ago)
Launch vehicle
FALCON 9
Launch site
Air Force Eastern Test Range (AFETR)
Object type
Payload
Rocket body
Debris
Shape & HBR
Box + 2 Pan, 17.7 m
Radar Cross Section
33.884 m², Large (>1 m²)

Expand to show TLE details & history
Last TLE update: 2 days ago

TLE from 2 days ago
0 STARLINK-30146
1 57442U 23105N   26171.04163556  .00000328  00000-0  21450-4 0  9999
2 57442  43.0050  41.9576 0001643 268.4342  91.6321 15.27580592161296
Epoch: 2026-06-20T00:59Z
TLE epoch observation values (Epoch: 2026-06-20T00:59:57.312Z)
Latitude
-0.00005°
Longitude
118.7068°
Altitude
482.856 km
Speed
7.626 km/s
True Right ascension
02h 47m 49s
True Declination
0° 00' 00"
Sunlit
Object was in daylight at epoch
Visualization orbit readout
Latitude
Unknown
Longitude
Unknown
Altitude
Unknown
Speed
Unknown
Apparent Right ascension
Unknown
Apparent Declination
Unknown
Sunlit
N/A
Visualization observer readout
Local Sidereal Time
21:24:35
Azimuth
Unknown
Elevation
Unknown
Doppler factor
Unknown
Orbital elements
Apogee altitude
486.119 km
Perigee altitude
483.864 km
Semi-major axis
6,863.129 km
Eccentricity
0.00016
Inclination
43.005°
RAAN
41.9576°
Arg. of periapsis
268.4342°
True anomaly
91.65092°
Mean anomaly
91.6321°
Eccentric anomaly
91.64151°
Mean motion
3.81733 °/min
Orbital period
94.31 mins
BSTAR
0.00002145
Loading maneuver chart data...
Computing Atmospheric mass density...
Loading historical data...
Loading historical data...
Loading historical data...
Loading historical data...
Loading historical data...
Loading historical data...
Loading historical data...

Documentation

Showing up to 5 results
|